Grand Forks AFB, ND

6:44 AM CDT on April 23, 2017 (GMT -0500)
Grand Forks Air Force Base

Weather History for KRDR - February, 2014

Change the Weather History Date:

Monday, February 3, 2014

  Actual Average Record
Temperature  
Mean Temperature 4 °F -  
Max Temperature 14 °F 19 °F 37 °F (2005)
Min Temperature -9 °F 1 °F -24 °F (2007)
Degree Days  
Heating Degree Days 61    
Moisture  
Dew Point -3 °F    
Average Humidity 69    
Maximum Humidity 78    
Minimum Humidity 58    
Precipitation  
Precipitation 0.00 in - - ()
Sea Level Pressure  
Sea Level Pressure 30.28 in    
Wind  
Wind Speed 10 mph (NW)    
Max Wind Speed 15 mph    
Max Gust Speed 23 mph    
Visibility 10 miles    
Events Snow    
Averages and records for this station are not official NWS values.
T = Trace of Precipitation, MM = Missing Value Source: NWS Daily Summary

Daily Weather History Graph

Daily Weather History Graph

Search for Another Location

Airport or City:

Trip Planner

Search our weather history database for the weather conditions in past years. The results will help you decide how hot, cold, wet, or windy it might be!

Date:

Astronomy

Feb. 03, 2014 Rise Set
Actual Time 7:54 AM CST 5:33 PM CST
Civil Twilight 7:21 AM CST 6:06 PM CST
Nautical Twilight 6:44 AM CST 6:43 PM CST
Astronomical Twilight 6:08 AM CST 7:19 PM CST
Moon 9:34 AM CST (2/3) 10:50 PM CST (2/3)
Length of Visible Light 10h 44m
Length of Day
9h 38m
Waxing Crescent, 20% of the Moon is Illuminated
Feb 3
Waxing Crescent
Feb 6
First Quarter
Feb 14
Full
Feb 22
Last Quarter
Mar 1
New

Hourly Weather History & Observations

Time (CST) Temp. Windchill Dew Point Humidity Pressure Visibility Wind Dir Wind Speed Gust Speed Precip Events Conditions
12:58 AM 5.4 °F -7.6 °F -0.4 °F 77% 30.18 in 10.0 mi NW 8.1 mph - N/A   Scattered Clouds
1:34 AM 8.6 °F -7.0 °F 1.4 °F 73% 30.10 in 10.0 mi North 12.7 mph - N/A Snow Light Snow
1:36 AM 8.6 °F -6.3 °F 1.4 °F 73% 30.10 in 10.0 mi North 11.5 mph - N/A   Overcast
1:37 AM 8.6 °F -6.3 °F 1.4 °F 73% 30.10 in 10.0 mi North 11.5 mph - N/A Snow Light Snow
1:44 AM 8.6 °F -6.3 °F 1.4 °F 73% 30.11 in 10.0 mi NNW 11.5 mph - N/A   Overcast
1:58 AM 8.4 °F -5.7 °F 0.7 °F 71% 30.20 in 10.0 mi NNW 10.4 mph - 0.00 in   Overcast
2:58 AM 7.3 °F -6.2 °F -1.8 °F 66% 30.22 in 10.0 mi NNW 9.2 mph - N/A   Overcast
3:58 AM 4.6 °F -6.0 °F -3.5 °F 69% 30.22 in 10.0 mi West 5.8 mph - N/A   Overcast
4:58 AM 4.5 °F -6.3 °F -2.4 °F 73% 30.22 in 10.0 mi West 5.8 mph - N/A   Overcast
5:58 AM 5.4 °F -6.5 °F -1.5 °F 73% 30.23 in 10.0 mi West 6.9 mph - N/A   Overcast
6:58 AM 5.2 °F -5.4 °F -1.5 °F 74% 30.25 in 10.0 mi West 5.8 mph - N/A   Overcast
7:58 AM 6.1 °F -5.6 °F -0.0 °F 76% 30.25 in 10.0 mi WSW 6.9 mph - N/A   Overcast
8:58 AM 7.7 °F -2.4 °F 0.9 °F 74% 30.27 in 10.0 mi West 5.8 mph - N/A   Overcast
9:01 AM 8.6 °F 0.1 °F 1.4 °F 73% 30.18 in 10.0 mi West 4.6 mph - N/A   Overcast
9:31 AM 8.6 °F 0.1 °F 1.4 °F 73% 30.18 in 10.0 mi West 4.6 mph - N/A   Overcast
9:41 AM 10.4 °F 2.2 °F 1.4 °F 67% 30.19 in 10.0 mi WSW 4.6 mph - N/A   Overcast
9:56 AM 10.4 °F 2.2 °F 3.2 °F 73% 30.19 in 10.0 mi WNW 4.6 mph - N/A   Overcast
9:58 AM 10.6 °F -0.2 °F 2.7 °F 70% 30.27 in 10.0 mi WNW 6.9 mph - N/A   Overcast
10:00 AM 10.4 °F -0.4 °F 3.2 °F 73% 30.19 in 10.0 mi WNW 6.9 mph - N/A   Overcast
10:11 AM 12.2 °F 1.7 °F 3.2 °F 67% 30.19 in 10.0 mi NW 6.9 mph - N/A   Overcast
10:36 AM 12.2 °F -1.0 °F 3.2 °F 67% 30.19 in 10.0 mi NNW 10.4 mph - N/A   Overcast
10:41 AM 14.0 °F 2.0 °F 3.2 °F 62% 30.19 in 10.0 mi NW 9.2 mph - N/A   Overcast
10:46 AM 14.0 °F 2.9 °F 3.2 °F 62% 30.19 in 10.0 mi NW 8.1 mph - N/A   Overcast
10:58 AM 13.8 °F 2.7 °F 3.6 °F 64% 30.28 in 10.0 mi WNW 8.1 mph - 0.00 in   Overcast
11:58 AM 13.5 °F 0.5 °F 2.3 °F 61% 30.28 in 10.0 mi WNW 10.4 mph - N/A   Mostly Cloudy
12:58 PM 13.8 °F -1.1 °F 3.4 °F 63% 30.29 in 10.0 mi NW 13.8 mph - N/A   Clear
1:58 PM 14.4 °F 2.4 °F 1.9 °F 58% 30.29 in 10.0 mi NW 9.2 mph - N/A   Scattered Clouds
2:58 PM 13.6 °F -0.7 °F 1.2 °F 58% 30.29 in 10.0 mi NW 12.7 mph - N/A   Scattered Clouds
3:58 PM 10.4 °F -5.4 °F 0.9 °F 65% 30.32 in 10.0 mi NW 13.8 mph 23.0 mph N/A   Overcast
4:58 PM 6.3 °F -10.0 °F -2.9 °F 66% 30.36 in 10.0 mi NNW 12.7 mph - N/A   Clear
5:58 PM 2.8 °F -15.7 °F -7.4 °F 62% 30.39 in 10.0 mi NW 15.0 mph - N/A   Mostly Cloudy
6:58 PM 0.3 °F -19.0 °F -10.5 °F 60% 30.42 in 10.0 mi NNW 15.0 mph - N/A   Clear
7:13 PM -0.4 °F -19.2 °F -11.2 °F 60% 30.34 in 10.0 mi NNW 13.8 mph 20.7 mph N/A   Mostly Cloudy
7:20 PM -0.4 °F -19.2 °F -9.4 °F 66% 30.34 in 10.0 mi NW 13.8 mph - N/A   Mostly Cloudy
7:34 PM -0.4 °F -19.2 °F -9.4 °F 66% 30.35 in 10.0 mi NW 13.8 mph - N/A Snow Light Snow
7:49 PM -2.2 °F -22.2 °F -7.6 °F 78% 30.35 in 10.0 mi NNW 15.0 mph - N/A Snow Light Snow
7:54 PM -2.2 °F -19.9 °F -7.6 °F 78% 30.36 in 10.0 mi NNW 11.5 mph - N/A Snow Light Snow
7:58 PM -1.3 °F -19.6 °F -7.8 °F 74% 30.45 in 10.0 mi NNW 12.7 mph - 0.00 in Snow Light Snow
8:06 PM -2.2 °F -19.9 °F -7.6 °F 78% 30.36 in 10.0 mi NNW 11.5 mph - N/A   Overcast
8:10 PM -2.2 °F -21.5 °F -7.6 °F 78% 30.36 in 10.0 mi NNW 13.8 mph - N/A   Overcast
8:30 PM -2.2 °F -20.7 °F -11.2 °F 66% 30.37 in 10.0 mi NNW 12.7 mph - N/A   Scattered Clouds
8:58 PM -2.6 °F -19.4 °F -12.8 °F 62% 30.47 in 10.0 mi NNW 10.4 mph - 0.00 in   Clear
9:58 PM -4.5 °F -19.7 °F -14.1 °F 64% 30.48 in 10.0 mi NNW 8.1 mph - N/A   Clear
10:58 PM -6.0 °F -22.6 °F -15.0 °F 65% 30.50 in 10.0 mi NW 9.2 mph - N/A   Clear
11:58 PM -9.8 °F -27.3 °F -17.3 °F 69% 30.53 in 10.0 mi NW 9.2 mph - 0.00 in   Clear